| time (UTC) | temp F | wind direction | speed MPH | gust MPH | rain 1hr in | rain 24hr in | rain mn in | humidity % | barometer mb |
| 20260902185824 | 73 | 0.0 | 0.0 | 0.19 | 0.27 | 0.27 | 94 | 1017.5 | |
| 20260902185525 | 73 | 0.0 | 0.0 | 0.27 | 0.27 | 0.27 | 93 | 1018.4 | |
| 20260902185320 | 73 | 0.0 | 0.0 | 0.27 | 0.27 | 0.27 | 93 | 1017.9 | |
| 20260902185028 | 73 | 0.0 | 0.0 | 0.27 | 0.27 | 0.27 | 93 | 1018.6 | |
| 20260902184600 | 73 | 0.0 | 0.0 | 0.27 | 0.27 | 0.27 | 93 | 1018.6 | |
| 20260902184326 | 73 | 0.0 | 0.0 | 0.27 | 0.27 | 0.27 | 93 | 1018.0 | |
| 20260902184032 | 73 | 0.0 | 0.0 | 0.27 | 0.27 | 0.27 | 93 | 1018.8 | |
| 20260902183833 | 73 | 0.0 | 0.0 | 0.27 | 0.27 | 0.27 | 93 | 1018.5 | |
| 20260902183530 | 73 | 0.0 | 0.0 | 0.27 | 0.27 | 0.27 | 92 | 1019.2 | |
| 20260902183319 | 73 | 0.0 | 0.0 | 0.27 | 0.27 | 0.27 | 93 | 1018.5 | |
| 20260902183101 | 73 | 0.0 | 0.0 | 0.27 | 0.27 | 0.27 | 92 | 1019.2 | |
| 20260902182822 | 73 | 0.0 | 0.0 | 0.27 | 0.27 | 0.27 | 92 | 1018.5 | |
| 20260902182529 | 73 | 0.0 | 0.0 | 0.27 | 0.27 | 0.27 | 91 | 1019.1 | |
| 20260902182312 | 73 | 0.0 | 0.0 | 0.27 | 0.27 | 0.27 | 90 | 1018.6 | |
| 20260902182029 | 73 | 0.0 | 0.0 | 0.27 | 0.27 | 0.27 | 89 | 1019.6 | |
| 20260902181820 | 74 | 0.0 | 0.0 | 0.27 | 0.27 | 0.27 | 89 | 1018.8 | |
| 20260902181550 | 73 | 0.0 | 0.0 | 0.27 | 0.27 | 0.27 | 88 | 1019.7 | |
| 20260902181327 | 74 | 0.0 | 0.0 | 0.27 | 0.27 | 0.27 | 88 | 1018.9 | |
| 20260902181026 | 74 | 0.0 | 0.0 | 0.26 | 0.26 | 0.26 | 86 | 1019.7 | |
| 20260902180815 | 75 | 0.0 | 0.0 | 0.25 | 0.25 | 0.25 | 86 | 1019.1 | |
| 20260902180525 | 75 | 0.0 | 0.0 | 0.22 | 0.22 | 0.22 | 85 | 1019.8 | |
| 20260902180321 | 76 | 0.0 | 0.0 | 0.18 | 0.18 | 0.18 | 83 | 1019.2 | |
| 20260902180047 | 76 | 0.0 | 0.0 | 0.12 | 0.12 | 0.12 | 83 | 1020.5 | |
| 20260902175831 | 77 | 0.0 | 0.0 | 0.06 | 0.06 | 0.06 | 81 | 1020.1 | |
| 20260902175524 | 78 | 0.0 | 0.0 | 0.00 | 0.00 | 0.00 | 78 | 1020.7 | |
| 20260902175318 | 79 | 0.0 | 0.0 | 0.00 | 0.00 | 0.00 | 76 | 1019.7 | |
| 20260902175025 | 79 | 0.0 | 0.0 | 0.00 | 0.00 | 0.00 | 75 | 1020.4 | |
| 20260902174823 | 80 | 0.0 | 0.0 | 0.00 | 0.00 | 0.00 | 73 | 1019.8 | |
| 20260902174544 | 81 | 0.0 | 0.0 | 0.00 | 0.00 | 0.00 | 72 | 1020.4 | |
| 20260902174331 | 82 | 0.0 | 0.0 | 0.00 | 0.00 | 0.00 | 71 | 1019.6 | |
| 20260902174025 | 83 | 1.0 | 4.0 | 0.00 | 0.00 | 0.00 | 71 | 1020.4 | |
| 20260902173524 | 86 | 1.0 | 9.0 | 0.00 | 0.00 | 0.00 | 70 | 1020.3 | |
| 20260902173335 | 87 | 248 | 1.0 | 8.0 | 0.00 | 0.00 | 0.00 | 70 | 1019.6 |
| 20260902173050 | 88 | 0 | 1.0 | 9.0 | 0.00 | 0.00 | 0.00 | 70 | 1020.1 |
| 20260902172830 | 89 | 93 | 2.0 | 8.0 | 0.00 | 0.00 | 0.00 | 69 | 1019.3 |
| 20260902172523 | 89 | 0 | 0.0 | 4.0 | 0.00 | 0.00 | 0.00 | 67 | 1019.9 |
| 20260902172321 | 89 | 79 | 0.0 | 4.0 | 0.00 | 0.00 | 0.00 | 69 | 1019.2 |
| 20260902172025 | 89 | 0 | 0.0 | 4.0 | 0.00 | 0.00 | 0.00 | 68 | 1019.7 |
| 20260902171813 | 90 | 100 | 0.0 | 1.0 | 0.00 | 0.00 | 0.00 | 70 | 1019.0 |
| 20260902171546 | 89 | 0 | 0.0 | 1.0 | 0.00 | 0.00 | 0.00 | 69 | 1019.6 |
| 20260902171329 | 90 | 133 | 0.0 | 1.0 | 0.00 | 0.00 | 0.00 | 68 | 1018.8 |
| 20260902171026 | 89 | 0 | 0.0 | 1.0 | 0.00 | 0.00 | 0.00 | 67 | 1019.3 |
| 20260902170821 | 90 | 140 | 0.0 | 1.0 | 0.00 | 0.00 | 0.00 | 67 | 1018.8 |
| 20260902170526 | 89 | 0 | 0.0 | 4.0 | 0.00 | 0.00 | 0.00 | 67 | 1019.4 |
| 20260902170316 | 89 | 140 | 0.0 | 4.0 | 0.00 | 0.00 | 0.00 | 67 | 1018.7 |
| 20260902170048 | 89 | 0 | 0.0 | 5.0 | 0.00 | 0.00 | 0.00 | 67 | 1019.3 |
| 20260902165828 | 89 | 129 | 1.0 | 5.0 | 0.00 | 0.00 | 0.00 | 68 | 1018.6 |
| 20260902165527 | 89 | 0 | 1.0 | 5.0 | 0.00 | 0.00 | 0.00 | 66 | 1019.2 |
| 20260902165321 | 89 | 183 | 1.0 | 5.0 | 0.00 | 0.00 | 0.00 | 67 | 1018.5 |
| 20260902165026 | 89 | 0 | 0.0 | 1.0 | 0.00 | 0.00 | 0.00 | 68 | 1019.2 |
| 20260902164812 | 89 | 138 | 0.0 | 1.0 | 0.00 | 0.00 | 0.00 | 66 | 1018.6 |
| 20260902164546 | 89 | 0 | 0.0 | 1.0 | 0.00 | 0.00 | 0.00 | 67 | 1018.8 |
| 20260902164328 | 89 | 138 | 0.0 | 1.0 | 0.00 | 0.00 | 0.00 | 67 | 1018.3 |
| 20260902164027 | 88 | 0 | 0.0 | 1.0 | 0.00 | 0.00 | 0.00 | 66 | 1019.0 |
| 20260902163817 | 89 | 121 | 0.0 | 1.0 | 0.00 | 0.00 | 0.00 | 68 | 1018.4 |
| 20260902163523 | 88 | 0 | 0.0 | 2.0 | 0.00 | 0.00 | 0.00 | 69 | 1019.1 |
| 20260902163332 | 88 | 165 | 0.0 | 2.0 | 0.00 | 0.00 | 0.00 | 70 | 1018.5 |
| 20260902163101 | 88 | 0 | 0.0 | 2.0 | 0.00 | 0.00 | 0.00 | 68 | 1019.0 |
| 20260902162846 | 88 | 165 | 0.0 | 2.0 | 0.00 | 0.00 | 0.00 | 69 | 1018.5 |
| 20260902162522 | 88 | 0 | 0.0 | 2.0 | 0.00 | 0.00 | 0.00 | 67 | 1019.1 |
| 20260902162349 | 88 | 122 | 0.0 | 1.0 | 0.00 | 0.00 | 0.00 | 68 | 1018.5 |
| 20260902162028 | 88 | 0 | 0.0 | 1.0 | 0.00 | 0.00 | 0.00 | 70 | 1019.1 |
| 20260902161823 | 88 | 117 | 0.0 | 0.0 | 0.00 | 0.00 | 0.00 | 68 | 1018.4 |
| 20260902161548 | 88 | 0 | 0.0 | 1.0 | 0.00 | 0.00 | 0.00 | 67 | 1019.0 |
| 20260902161312 | 89 | 118 | 0.0 | 1.0 | 0.00 | 0.00 | 0.00 | 70 | 1018.5 |
| 20260902161030 | 88 | 0 | 0.0 | 3.0 | 0.00 | 0.00 | 0.00 | 67 | 1019.0 |
| 20260902160823 | 89 | 118 | 0.0 | 2.0 | 0.00 | 0.00 | 0.00 | 66 | 1018.5 |
| 20260902160529 | 88 | 0 | 0.0 | 3.0 | 0.00 | 0.00 | 0.00 | 66 | 1019.1 |
| 20260902160333 | 89 | 96 | 0.0 | 2.0 | 0.00 | 0.00 | 0.00 | 67 | 1018.5 |
| 20260902160043 | 88 | 0 | 0.0 | 2.0 | 0.00 | 0.00 | 0.00 | 67 | 1018.9 |
| 20260902155843 | 89 | 112 | 0.0 | 2.0 | 0.00 | 0.00 | 0.00 | 67 | 1018.3 |
| 20260902155525 | 88 | 0 | 0.0 | 2.0 | 0.00 | 0.00 | 0.00 | 67 | 1018.7 |
| 20260902155351 | 88 | 125 | 0.0 | 2.0 | 0.00 | 0.00 | 0.00 | 70 | 1018.2 |
| 20260902155029 | 88 | 0 | 0.0 | 2.0 | 0.00 | 0.00 | 0.00 | 70 | 1018.8 |
| 20260902154823 | 88 | 109 | 0.0 | 1.0 | 0.00 | 0.00 | 0.00 | 70 | 1018.3 |
| 20260902154543 | 87 | 0 | 0.0 | 1.0 | 0.00 | 0.00 | 0.00 | 68 | 1018.8 |
| 20260902154315 | 88 | 114 | 0.0 | 0.0 | 0.00 | 0.00 | 0.00 | 69 | 1018.3 |
| 20260902154024 | 87 | 0 | 0.0 | 5.0 | 0.00 | 0.00 | 0.00 | 70 | 1018.8 |
| 20260902153826 | 87 | 217 | 0.0 | 5.0 | 0.00 | 0.00 | 0.00 | 68 | 1018.3 |
| 20260902153525 | 87 | 0 | 0.0 | 5.0 | 0.00 | 0.00 | 0.00 | 68 | 1018.8 |
| 20260902153339 | 88 | 192 | 1.0 | 5.0 | 0.00 | 0.00 | 0.00 | 68 | 1018.3 |
| 20260902153045 | 87 | 0 | 0.0 | 0.0 | 0.00 | 0.00 | 0.00 | 68 | 1018.7 |
| 20260902152816 | 88 | 60 | 0.0 | 0.0 | 0.00 | 0.00 | 0.00 | 70 | 1018.3 |
| 20260902152525 | 87 | 0 | 0.0 | 3.0 | 0.00 | 0.00 | 0.00 | 71 | 1018.8 |
| 20260902152345 | 87 | 53 | 0.0 | 3.0 | 0.00 | 0.00 | 0.00 | 71 | 1018.3 |
| 20260902152026 | 87 | 0 | 0.0 | 3.0 | 0.00 | 0.00 | 0.00 | 67 | 1018.8 |
| 20260902151818 | 87 | 46 | 0.0 | 3.0 | 0.00 | 0.00 | 0.00 | 68 | 1018.3 |
| 20260902151551 | 87 | 91 | 0.0 | 3.0 | 0.00 | 0.00 | 0.00 | 70 | 1018.7 |
| 20260902151333 | 87 | 111 | 0.0 | 3.0 | 0.00 | 0.00 | 0.00 | 70 | 1018.3 |
| 20260902151025 | 87 | 0 | 0.0 | 3.0 | 0.00 | 0.00 | 0.00 | 68 | 1018.7 |
| 20260902150823 | 87 | 111 | 0.0 | 3.0 | 0.00 | 0.00 | 0.00 | 70 | 1018.2 |
| 20260902150529 | 86 | 0 | 0.0 | 3.0 | 0.00 | 0.00 | 0.00 | 70 | 1018.7 |
| 20260902150319 | 87 | 212 | 0.0 | 3.0 | 0.00 | 0.00 | 0.00 | 71 | 1018.2 |
| 20260902150045 | 86 | 0 | 0.0 | 5.0 | 0.00 | 0.00 | 0.00 | 71 | 1018.7 |
| 20260902145848 | 86 | 111 | 0.0 | 4.0 | 0.00 | 0.00 | 0.00 | 70 | 1018.1 |
| 20260902145529 | 86 | 211 | 0.0 | 5.0 | 0.00 | 0.00 | 0.00 | 69 | 1018.6 |
| 20260902145321 | 86 | 117 | 0.0 | 3.0 | 0.00 | 0.00 | 0.00 | 71 | 1018.2 |
| 20260902145024 | 85 | 0 | 0.0 | 3.0 | 0.00 | 0.00 | 0.00 | 69 | 1018.7 |
| 20260902144849 | 86 | 197 | 0.0 | 3.0 | 0.00 | 0.00 | 0.00 | 70 | 1018.3 |
| 20260902144544 | 85 | 0 | 0.0 | 3.0 | 0.00 | 0.00 | 0.00 | 69 | 1018.7 |
| 20260902144325 | 85 | 213 | 0.0 | 3.0 | 0.00 | 0.00 | 0.00 | 70 | 1018.2 |
| 20260902144028 | 85 | 0 | 0.0 | 4.0 | 0.00 | 0.00 | 0.00 | 70 | 1018.7 |
| 20260902143816 | 85 | 102 | 0.0 | 4.0 | 0.00 | 0.00 | 0.00 | 71 | 1018.2 |
| 20260902143526 | 85 | 0 | 0.0 | 4.0 | 0.00 | 0.00 | 0.00 | 70 | 1018.8 |
| 20260902143330 | 85 | 111 | 0.0 | 4.0 | 0.00 | 0.00 | 0.00 | 71 | 1018.2 |
| 20260902143049 | 84 | 0 | 0.0 | 0.0 | 0.00 | 0.00 | 0.00 | 74 | 1018.7 |
| 20260902142822 | 85 | 117 | 0.0 | 0.0 | 0.00 | 0.00 | 0.00 | 72 | 1018.2 |
| 20260902142524 | 84 | 0 | 0.0 | 0.0 | 0.00 | 0.00 | 0.00 | 72 | 1018.7 |
| 20260902142335 | 84 | 118 | 0.0 | 0.0 | 0.00 | 0.00 | 0.00 | 73 | 1018.3 |
| 20260902142027 | 83 | 0 | 0.0 | 0.0 | 0.00 | 0.00 | 0.00 | 73 | 1018.9 |
| 20260902141829 | 84 | 117 | 0.0 | 0.0 | 0.00 | 0.00 | 0.00 | 74 | 1018.4 |
| 20260902141551 | 83 | 0 | 0.0 | 0.0 | 0.00 | 0.00 | 0.00 | 74 | 1018.8 |
| 20260902141320 | 83 | 117 | 0.0 | 0.0 | 0.00 | 0.00 | 0.00 | 74 | 1018.3 |
| 20260902141027 | 82 | 0 | 0.0 | 2.0 | 0.00 | 0.00 | 0.00 | 76 | 1018.9 |
| 20260902140816 | 83 | 117 | 0.0 | 2.0 | 0.00 | 0.00 | 0.00 | 76 | 1018.3 |
| 20260902140525 | 82 | 0 | 0.0 | 2.0 | 0.00 | 0.00 | 0.00 | 76 | 1018.9 |
| 20260902140331 | 82 | 119 | 0.0 | 2.0 | 0.00 | 0.00 | 0.00 | 78 | 1018.3 |
| 20260902140044 | 81 | 0 | 0.0 | 0.0 | 0.00 | 0.00 | 0.00 | 76 | 1018.8 |
| 20260902135842 | 81 | 185 | 0.0 | 0.0 | 0.00 | 0.00 | 0.00 | 79 | 1018.2 |
| 20260902135526 | 81 | 0 | 0.0 | 4.0 | 0.00 | 0.00 | 0.00 | 79 | 1018.7 |
| 20260902135328 | 81 | 185 | 0.0 | 4.0 | 0.00 | 0.00 | 0.00 | 80 | 1018.2 |
| 20260902135024 | 80 | 0 | 0.0 | 4.0 | 0.00 | 0.00 | 0.00 | 78 | 1018.7 |
| 20260902134823 | 81 | 185 | 0.0 | 4.0 | 0.00 | 0.00 | 0.00 | 80 | 1018.2 |
| 20260902134556 | 80 | 0 | 0.0 | 4.0 | 0.00 | 0.00 | 0.00 | 79 | 1018.8 |
| 20260902134316 | 80 | 184 | 0.0 | 2.0 | 0.00 | 0.00 | 0.00 | 80 | 1018.2 |
| 20260902134029 | 79 | 0 | 0.0 | 1.0 | 0.00 | 0.00 | 0.00 | 81 | 1018.7 |
| 20260902133847 | 80 | 163 | 0.0 | 1.0 | 0.00 | 0.00 | 0.00 | 83 | 1018.2 |
| 20260902133528 | 79 | 0 | 0.0 | 0.0 | 0.00 | 0.00 | 0.00 | 81 | 1018.7 |
| 20260902133321 | 79 | 160 | 0.0 | 0.0 | 0.00 | 0.00 | 0.00 | 82 | 1018.1 |
| 20260902133044 | 79 | 0 | 0.0 | 0.0 | 0.00 | 0.00 | 0.00 | 81 | 1018.6 |
| 20260902132814 | 79 | 160 | 0.0 | 0.0 | 0.00 | 0.00 | 0.00 | 82 | 1018.1 |
| 20260902132525 | 78 | 0 | 0.0 | 0.0 | 0.00 | 0.00 | 0.00 | 82 | 1018.6 |
| 20260902132351 | 79 | 185 | 0.0 | 0.0 | 0.00 | 0.00 | 0.00 | 83 | 1018.1 |
| 20260902132025 | 78 | 0 | 0.0 | 0.0 | 0.00 | 0.00 | 0.00 | 83 | 1018.7 |
| 20260902131822 | 78 | 185 | 0.0 | 0.0 | 0.00 | 0.00 | 0.00 | 86 | 1018.2 |
| 20260902131555 | 78 | 0 | 0.0 | 1.0 | 0.00 | 0.00 | 0.00 | 83 | 1018.7 |
| 20260902131353 | 78 | 185 | 0.0 | 0.0 | 0.00 | 0.00 | 0.00 | 84 | 1018.1 |
| 20260902131026 | 77 | 0 | 0.0 | 1.0 | 0.00 | 0.00 | 0.00 | 84 | 1018.7 |
| 20260902130824 | 77 | 186 | 0.0 | 1.0 | 0.00 | 0.00 | 0.00 | 85 | 1018.1 |
| 20260902130528 | 77 | 0 | 0.0 | 1.0 | 0.00 | 0.00 | 0.00 | 85 | 1018.6 |
| 20260902130319 | 77 | 181 | 0.0 | 0.0 | 0.00 | 0.00 | 0.00 | 86 | 1018.1 |
| 20260902130045 | 76 | 0 | 0.0 | 0.0 | 0.00 | 0.00 | 0.00 | 86 | 1018.5 |
| 20260902125851 | 76 | 181 | 0.0 | 0.0 | 0.00 | 0.00 | 0.00 | 87 | 1018.0 |
| 20260902125528 | 76 | 0 | 0.0 | 0.0 | 0.00 | 0.00 | 0.00 | 88 | 1018.6 |
| 20260902125319 | 76 | 181 | 0.0 | 0.0 | 0.00 | 0.00 | 0.00 | 88 | 1018.0 |
| 20260902125028 | 75 | 0 | 0.0 | 0.0 | 0.00 | 0.00 | 0.00 | 89 | 1018.6 |
| 20260902124830 | 76 | 181 | 0.0 | 0.0 | 0.00 | 0.00 | 0.00 | 90 | 1018.1 |
| 20260902124550 | 75 | 0 | 0.0 | 0.0 | 0.00 | 0.00 | 0.00 | 91 | 1018.6 |
| 20260902124320 | 75 | 181 | 0.0 | 0.0 | 0.00 | 0.00 | 0.00 | 91 | 1018.1 |
| 20260902124030 | 74 | 0 | 0.0 | 0.0 | 0.00 | 0.00 | 0.00 | 90 | 1018.7 |
| 20260902123831 | 75 | 181 | 0.0 | 0.0 | 0.00 | 0.00 | 0.00 | 91 | 1018.1 |
| 20260902123525 | 74 | 0 | 0.0 | 0.0 | 0.00 | 0.00 | 0.00 | 92 | 1018.5 |
| 20260902123321 | 74 | 181 | 0.0 | 0.0 | 0.00 | 0.00 | 0.00 | 92 | 1017.9 |
| 20260902123103 | 74 | 0 | 0.0 | 0.0 | 0.00 | 0.00 | 0.00 | 93 | 1018.5 |
| 20260902122816 | 74 | 181 | 0.0 | 0.0 | 0.00 | 0.00 | 0.00 | 94 | 1018.0 |
| 20260902122525 | 73 | 0 | 0.0 | 0.0 | 0.00 | 0.00 | 0.00 | 93 | 1018.6 |
| 20260902122326 | 74 | 181 | 0.0 | 0.0 | 0.00 | 0.00 | 0.00 | 94 | 1018.0 |
| 20260902122026 | 73 | 0 | 0.0 | 0.0 | 0.00 | 0.00 | 0.00 | 94 | 1018.5 |
| 20260902121817 | 73 | 0.0 | 0.0 | 0.00 | 0.00 | 0.00 | 94 | 1017.9 | |
| 20260902121555 | 73 | 0 | 0.0 | 0.0 | 0.00 | 0.00 | 0.00 | 94 | 1018.3 |
| 20260902121327 | 73 | 0.0 | 0.0 | 0.00 | 0.00 | 0.00 | 95 | 1017.8 | |
| 20260902121025 | 73 | 0 | 0.0 | 0.0 | 0.00 | 0.00 | 0.00 | 94 | 1018.4 |
| 20260902120832 | 73 | 0.0 | 0.0 | 0.00 | 0.00 | 0.00 | 95 | 1017.8 | |
| 20260902120527 | 73 | 0 | 0.0 | 0.0 | 0.00 | 0.00 | 0.00 | 94 | 1018.4 |
| 20260902120322 | 73 | 0.0 | 0.0 | 0.00 | 0.00 | 0.00 | 95 | 1017.8 | |
| 20260902120053 | 72 | 0 | 0.0 | 0.0 | 0.00 | 0.00 | 0.00 | 94 | 1018.3 |
| 20260902115831 | 73 | 0.0 | 0.0 | 0.00 | 0.00 | 0.00 | 95 | 1017.7 | |
| 20260902115527 | 72 | 0 | 0.0 | 0.0 | 0.00 | 0.00 | 0.00 | 94 | 1018.3 |
| 20260902115342 | 73 | 0.0 | 0.0 | 0.00 | 0.00 | 0.00 | 95 | 1017.7 | |
| 20260902115028 | 72 | 0.0 | 0.0 | 0.00 | 0.00 | 0.00 | 94 | 1018.3 | |
| 20260902114812 | 73 | 0.0 | 0.0 | 0.00 | 0.00 | 0.00 | 95 | 1017.7 | |
| 20260902114549 | 72 | 0.0 | 0.0 | 0.00 | 0.00 | 0.00 | 94 | 1018.2 | |
| 20260902114347 | 73 | 0.0 | 0.0 | 0.00 | 0.00 | 0.00 | 95 | 1017.7 | |
| 20260902114024 | 72 | 0.0 | 0.0 | 0.00 | 0.00 | 0.00 | 94 | 1018.3 | |
| 20260902113820 | 72 | 0.0 | 0.0 | 0.00 | 0.00 | 0.00 | 95 | 1017.7 | |
| 20260902113526 | 72 | 0.0 | 0.0 | 0.00 | 0.00 | 0.00 | 94 | 1018.2 | |
| 20260902113328 | 72 | 0.0 | 0.0 | 0.00 | 0.00 | 0.00 | 95 | 1017.7 | |
| 20260902113046 | 72 | 0.0 | 0.0 | 0.00 | 0.00 | 0.00 | 94 | 1018.2 | |
| 20260902112812 | 72 | 0.0 | 0.0 | 0.00 | 0.00 | 0.00 | 95 | 1017.6 | |
| 20260902112525 | 72 | 0.0 | 0.0 | 0.00 | 0.00 | 0.00 | 94 | 1018.2 | |
| 20260902112321 | 72 | 0.0 | 0.0 | 0.00 | 0.00 | 0.00 | 95 | 1017.7 | |
| 20260902112028 | 72 | 0.0 | 0.0 | 0.00 | 0.00 | 0.00 | 94 | 1018.3 | |
| 20260902111823 | 72 | 0.0 | 0.0 | 0.00 | 0.00 | 0.00 | 95 | 1017.8 | |
| 20260902111554 | 72 | 0.0 | 0.0 | 0.00 | 0.00 | 0.00 | 95 | 1018.3 | |
| 20260902111315 | 72 | 0.0 | 0.0 | 0.00 | 0.00 | 0.00 | 95 | 1017.9 | |
| 20260902111025 | 72 | 0.0 | 0.0 | 0.00 | 0.00 | 0.00 | 94 | 1018.4 | |
| 20260902110828 | 72 | 0.0 | 0.0 | 0.00 | 0.00 | 0.00 | 95 | 1018.0 | |
| 20260902110525 | 72 | 0.0 | 0.0 | 0.00 | 0.00 | 0.00 | 94 | 1018.4 | |
| 20260902110321 | 72 | 0.0 | 0.0 | 0.00 | 0.00 | 0.00 | 95 | 1017.9 | |
| 20260902110044 | 71 | 0.0 | 0.0 | 0.00 | 0.00 | 0.00 | 94 | 1018.2 | |
| 20260902105830 | 72 | 0.0 | 0.0 | 0.00 | 0.00 | 0.00 | 95 | 1017.8 | |
| 20260902105530 | 71 | 0.0 | 0.0 | 0.00 | 0.00 | 0.00 | 94 | 1018.3 | |
| 20260902105333 | 72 | 0.0 | 0.0 | 0.00 | 0.00 | 0.00 | 95 | 1017.8 | |
| 20260902105028 | 71 | 0.0 | 0.0 | 0.00 | 0.00 | 0.00 | 94 | 1018.3 | |
| 20260902104846 | 72 | 0.0 | 0.0 | 0.00 | 0.00 | 0.00 | 94 | 1017.8 | |
| 20260902104549 | 71 | 0.0 | 0.0 | 0.00 | 0.00 | 0.00 | 94 | 1018.2 | |
| 20260902104313 | 72 | 0.0 | 0.0 | 0.00 | 0.00 | 0.00 | 94 | 1017.8 | |
| 20260902104027 | 71 | 0.0 | 0.0 | 0.00 | 0.00 | 0.00 | 94 | 1018.3 | |
| 20260902103826 | 72 | 0.0 | 0.0 | 0.00 | 0.00 | 0.00 | 94 | 1017.9 | |
| 20260902103524 | 71 | 0.0 | 0.0 | 0.00 | 0.00 | 0.00 | 94 | 1018.3 | |
| 20260902103318 | 72 | 0.0 | 0.0 | 0.00 | 0.00 | 0.00 | 94 | 1017.9 | |
| 20260902103047 | 71 | 0.0 | 0.0 | 0.00 | 0.00 | 0.00 | 94 | 1018.2 | |
| 20260902102825 | 72 | 0.0 | 0.0 | 0.00 | 0.00 | 0.00 | 94 | 1017.8 | |
| 20260902102524 | 71 | 0.0 | 0.0 | 0.00 | 0.00 | 0.00 | 94 | 1018.2 | |
| 20260902102334 | 72 | 0.0 | 0.0 | 0.00 | 0.00 | 0.00 | 94 | 1017.8 | |
| 20260902102025 | 72 | 0.0 | 0.0 | 0.00 | 0.00 | 0.00 | 94 | 1018.1 | |
| 20260902101829 | 72 | 0.0 | 0.0 | 0.00 | 0.00 | 0.00 | 94 | 1017.7 | |
| 20260902101542 | 71 | 0.0 | 0.0 | 0.00 | 0.00 | 0.00 | 94 | 1018.1 | |
| 20260902101311 | 72 | 0.0 | 0.0 | 0.00 | 0.00 | 0.00 | 94 | 1017.7 | |
| 20260902101030 | 72 | 0.0 | 0.0 | 0.00 | 0.00 | 0.00 | 94 | 1018.1 | |
| 20260902100824 | 72 | 0.0 | 0.0 | 0.00 | 0.00 | 0.00 | 94 | 1017.7 | |
| 20260902100529 | 72 | 0.0 | 0.0 | 0.00 | 0.00 | 0.00 | 94 | 1018.1 | |
| 20260902100319 | 72 | 0.0 | 0.0 | 0.00 | 0.00 | 0.00 | 94 | 1017.6 | |
| 20260902100052 | 72 | 0.0 | 0.0 | 0.00 | 0.00 | 0.00 | 94 | 1018.0 | |
| 20260902095831 | 72 | 0.0 | 0.0 | 0.00 | 0.00 | 0.00 | 94 | 1017.5 | |
| 20260902095528 | 72 | 0.0 | 0.0 | 0.00 | 0.00 | 0.00 | 94 | 1017.9 | |
| 20260902095324 | 72 | 0.0 | 0.0 | 0.00 | 0.00 | 0.00 | 94 | 1017.5 | |
| 20260902095024 | 72 | 0.0 | 0.0 | 0.00 | 0.00 | 0.00 | 94 | 1018.0 | |
| 20260902094819 | 72 | 0.0 | 0.0 | 0.00 | 0.00 | 0.00 | 94 | 1017.5 | |
| 20260902094549 | 72 | 0.0 | 0.0 | 0.00 | 0.00 | 0.00 | 94 | 1018.0 | |
| 20260902094334 | 72 | 0.0 | 0.0 | 0.00 | 0.00 | 0.00 | 94 | 1017.6 | |
| 20260902094025 | 72 | 0.0 | 0.0 | 0.00 | 0.00 | 0.00 | 94 | 1018.0 | |
| 20260902093824 | 72 | 0.0 | 0.0 | 0.00 | 0.00 | 0.00 | 94 | 1017.4 | |
| 20260902093527 | 72 | 0.0 | 0.0 | 0.00 | 0.00 | 0.00 | 94 | 1018.0 | |
| 20260902093336 | 72 | 0.0 | 0.0 | 0.00 | 0.00 | 0.00 | 94 | 1017.5 | |
| 20260902093043 | 72 | 0.0 | 0.0 | 0.00 | 0.00 | 0.00 | 94 | 1018.0 | |
| 20260902092827 | 72 | 0.0 | 0.0 | 0.00 | 0.00 | 0.00 | 94 | 1017.5 | |
| 20260902092528 | 72 | 0.0 | 0.0 | 0.00 | 0.00 | 0.00 | 94 | 1018.0 | |
| 20260902092339 | 72 | 0.0 | 0.0 | 0.00 | 0.00 | 0.00 | 94 | 1017.6 | |
| 20260902092025 | 72 | 0.0 | 0.0 | 0.00 | 0.00 | 0.00 | 94 | 1018.1 | |
| 20260902091832 | 72 | 0.0 | 0.0 | 0.00 | 0.00 | 0.00 | 94 | 1017.6 | |
| 20260902091554 | 71 | 0.0 | 0.0 | 0.00 | 0.00 | 0.00 | 94 | 1018.0 | |
| 20260902091327 | 72 | 0.0 | 0.0 | 0.00 | 0.00 | 0.00 | 94 | 1017.6 | |
| 20260902091026 | 71 | 0.0 | 0.0 | 0.00 | 0.00 | 0.00 | 94 | 1018.0 | |
| 20260902090839 | 72 | 0.0 | 0.0 | 0.00 | 0.00 | 0.00 | 94 | 1017.4 | |
| 20260902090527 | 71 | 0.0 | 0.0 | 0.00 | 0.00 | 0.00 | 94 | 1017.9 | |
| 20260902090314 | 72 | 0.0 | 0.0 | 0.00 | 0.00 | 0.00 | 94 | 1017.4 | |
| 20260902090047 | 71 | 0.0 | 0.0 | 0.00 | 0.00 | 0.00 | 94 | 1017.9 | |
| 20260902085828 | 72 | 0.0 | 0.0 | 0.00 | 0.00 | 0.00 | 94 | 1017.5 | |
| 20260902085525 | 71 | 0.0 | 0.0 | 0.00 | 0.00 | 0.00 | 93 | 1018.0 | |
| 20260902085343 | 72 | 0.0 | 0.0 | 0.00 | 0.00 | 0.00 | 94 | 1017.5 | |
| 20260902085027 | 71 | 0.0 | 0.0 | 0.00 | 0.00 | 0.00 | 94 | 1017.9 | |
| 20260902084816 | 72 | 0.0 | 0.0 | 0.00 | 0.00 | 0.00 | 94 | 1017.4 | |
| 20260902084544 | 71 | 0.0 | 0.0 | 0.00 | 0.00 | 0.00 | 93 | 1017.9 | |
| 20260902084328 | 72 | 0.0 | 0.0 | 0.00 | 0.00 | 0.00 | 94 | 1017.4 | |
| 20260902084025 | 72 | 0.0 | 0.0 | 0.00 | 0.00 | 0.00 | 93 | 1017.9 | |
| 20260902083823 | 72 | 0.0 | 0.0 | 0.00 | 0.00 | 0.00 | 94 | 1017.4 | |
| 20260902083525 | 72 | 0.0 | 0.0 | 0.00 | 0.00 | 0.00 | 93 | 1018.0 | |
| 20260902083320 | 72 | 0.0 | 0.0 | 0.00 | 0.00 | 0.00 | 94 | 1017.4 | |
| 20260902083052 | 72 | 0.0 | 0.0 | 0.00 | 0.00 | 0.00 | 93 | 1017.9 | |
| 20260902082820 | 72 | 0.0 | 0.0 | 0.00 | 0.00 | 0.00 | 94 | 1017.4 | |
| 20260902082531 | 72 | 0.0 | 0.0 | 0.00 | 0.00 | 0.00 | 93 | 1017.9 | |
| 20260902082314 | 72 | 0.0 | 0.0 | 0.00 | 0.00 | 0.00 | 94 | 1017.4 | |
| 20260902082031 | 72 | 0.0 | 0.0 | 0.00 | 0.00 | 0.00 | 93 | 1017.9 | |
| 20260902081829 | 72 | 0.0 | 0.0 | 0.00 | 0.00 | 0.00 | 93 | 1017.4 | |
| 20260902081549 | 72 | 0.0 | 0.0 | 0.00 | 0.00 | 0.00 | 93 | 1017.8 | |
| 20260902081325 | 72 | 0.0 | 0.0 | 0.00 | 0.00 | 0.00 | 93 | 1017.3 | |
| 20260902081026 | 72 | 0.0 | 0.0 | 0.00 | 0.00 | 0.00 | 92 | 1017.7 | |
| 20260902080817 | 72 | 0.0 | 0.0 | 0.00 | 0.00 | 0.00 | 93 | 1017.3 | |
| 20260902080526 | 72 | 0.0 | 0.0 | 0.00 | 0.00 | 0.00 | 92 | 1017.8 | |
| 20260902080350 | 72 | 0.0 | 0.0 | 0.00 | 0.00 | 0.00 | 93 | 1017.3 | |
| 20260902080044 | 72 | 0.0 | 0.0 | 0.00 | 0.00 | 0.00 | 92 | 1017.8 | |
| 20260902075822 | 72 | 0.0 | 0.0 | 0.00 | 0.00 | 0.00 | 93 | 1017.3 | |
| 20260902075524 | 72 | 0.0 | 0.0 | 0.00 | 0.00 | 0.00 | 92 | 1017.8 | |
| 20260902075353 | 72 | 0.0 | 0.0 | 0.00 | 0.00 | 0.00 | 93 | 1017.3 | |
| 20260902075028 | 72 | 0.0 | 0.0 | 0.00 | 0.00 | 0.00 | 92 | 1017.7 | |
| 20260902074824 | 73 | 0.0 | 0.0 | 0.00 | 0.00 | 0.00 | 93 | 1017.2 | |
| 20260902074545 | 72 | 0.0 | 0.0 | 0.00 | 0.00 | 0.00 | 92 | 1017.6 | |
| 20260902074319 | 73 | 0.0 | 0.0 | 0.00 | 0.00 | 0.00 | 93 | 1017.1 | |
| 20260902074025 | 72 | 0.0 | 0.0 | 0.00 | 0.00 | 0.00 | 92 | 1017.5 | |
| 20260902073834 | 73 | 0.0 | 0.0 | 0.00 | 0.00 | 0.00 | 93 | 1017.1 | |
| 20260902073524 | 72 | 0.0 | 0.0 | 0.00 | 0.00 | 0.00 | 92 | 1017.6 | |
| 20260902073324 | 73 | 0.0 | 0.0 | 0.00 | 0.00 | 0.00 | 93 | 1017.0 | |
| 20260902073050 | 72 | 0.0 | 0.0 | 0.00 | 0.00 | 0.00 | 92 | 1017.6 | |
| 20260902072817 | 73 | 0.0 | 0.0 | 0.00 | 0.00 | 0.00 | 93 | 1017.0 | |
| 20260902072529 | 72 | 0.0 | 0.0 | 0.00 | 0.00 | 0.00 | 92 | 1017.5 | |
| 20260902072328 | 73 | 0.0 | 0.0 | 0.00 | 0.00 | 0.00 | 92 | 1017.0 | |
| 20260902072025 | 72 | 0.0 | 0.0 | 0.00 | 0.00 | 0.00 | 91 | 1017.4 | |
| 20260902071820 | 73 | 0.0 | 0.0 | 0.00 | 0.00 | 0.00 | 92 | 1017.0 | |
| 20260902071544 | 73 | 0.0 | 0.0 | 0.00 | 0.00 | 0.00 | 91 | 1017.4 | |
| 20260902071352 | 73 | 0.0 | 0.0 | 0.00 | 0.00 | 0.00 | 92 | 1017.0 | |
| 20260902071026 | 73 | 0.0 | 0.0 | 0.00 | 0.00 | 0.00 | 91 | 1017.4 | |
| 20260902070825 | 73 | 0.0 | 0.0 | 0.00 | 0.00 | 0.00 | 92 | 1016.9 | |
| 20260902070525 | 73 | 0.0 | 0.0 | 0.00 | 0.00 | 0.00 | 91 | 1017.4 | |
| 20260902070338 | 73 | 0.0 | 0.0 | 0.00 | 0.00 | 0.00 | 92 | 1016.8 | |
| 20260902070045 | 73 | 0.0 | 0.0 | 0.00 | 0.00 | 0.00 | 91 | 1017.3 | |
| 20260902065824 | 73 | 0.0 | 0.0 | 0.00 | 0.00 | 0.00 | 91 | 1016.9 | |
| 20260902065531 | 73 | 0.0 | 0.0 | 0.00 | 0.00 | 0.00 | 91 | 1017.3 | |
| 20260902065316 | 73 | 0.0 | 0.0 | 0.00 | 0.00 | 0.00 | 91 | 1016.8 | |
| 20260902065025 | 73 | 0.0 | 0.0 | 0.00 | 0.00 | 0.00 | 91 | 1017.2 | |
| 20260902064812 | 73 | 0.0 | 0.0 | 0.00 | 0.00 | 0.00 | 91 | 1016.7 | |
| 20260902064542 | 73 | 0.0 | 0.0 | 0.00 | 0.00 | 0.00 | 90 | 1017.2 | |
| 20260902064328 | 74 | 0.0 | 0.0 | 0.00 | 0.00 | 0.00 | 91 | 1016.7 | |
| 20260902064024 | 73 | 0.0 | 0.0 | 0.00 | 0.00 | 0.00 | 90 | 1017.2 | |
| 20260902063822 | 74 | 0.0 | 0.0 | 0.00 | 0.00 | 0.00 | 91 | 1016.7 | |
| 20260902063523 | 73 | 0.0 | 0.0 | 0.00 | 0.00 | 0.00 | 90 | 1017.2 | |
| 20260902063314 | 74 | 0.0 | 0.0 | 0.00 | 0.00 | 0.00 | 91 | 1016.7 | |
| 20260902063058 | 73 | 0.0 | 0.0 | 0.00 | 0.00 | 0.00 | 90 | 1017.3 | |
| 20260902062827 | 74 | 0.0 | 0.0 | 0.00 | 0.00 | 0.00 | 91 | 1016.8 | |
| 20260902062530 | 74 | 0.0 | 0.0 | 0.00 | 0.00 | 0.00 | 90 | 1017.3 | |
| 20260902062322 | 74 | 0.0 | 0.0 | 0.00 | 0.00 | 0.00 | 91 | 1016.8 | |
| 20260902062026 | 74 | 0.0 | 0.0 | 0.00 | 0.00 | 0.00 | 90 | 1017.2 | |
| 20260902061837 | 74 | 0.0 | 0.0 | 0.00 | 0.00 | 0.00 | 91 | 1016.7 | |
| 20260902061547 | 74 | 0.0 | 0.0 | 0.00 | 0.00 | 0.00 | 90 | 1017.3 | |
| 20260902061314 | 74 | 0.0 | 0.0 | 0.00 | 0.00 | 0.00 | 91 | 1016.8 | |
| 20260902061025 | 74 | 0.0 | 0.0 | 0.00 | 0.00 | 0.00 | 90 | 1017.4 | |
| 20260902060843 | 74 | 0.0 | 0.0 | 0.00 | 0.00 | 0.00 | 90 | 1016.9 | |
| 20260902060526 | 74 | 0.0 | 0.0 | 0.00 | 0.00 | 0.00 | 90 | 1017.4 | |
| 20260902060320 | 74 | 0.0 | 0.0 | 0.00 | 0.00 | 0.00 | 90 | 1016.9 | |
| 20260902060044 | 74 | 0.0 | 0.0 | 0.00 | 0.00 | 0.00 | 90 | 1017.5 | |
| 20260902055834 | 74 | 0.0 | 0.0 | 0.00 | 0.00 | 0.00 | 90 | 1016.9 | |
| 20260902055527 | 74 | 0.0 | 0.0 | 0.00 | 0.00 | 0.00 | 90 | 1017.5 | |
| 20260902055328 | 74 | 0.0 | 0.0 | 0.00 | 0.00 | 0.00 | 90 | 1016.9 | |
| 20260902055025 | 74 | 0.0 | 0.0 | 0.00 | 0.00 | 0.00 | 89 | 1017.4 | |
| 20260902054835 | 74 | 0.0 | 0.0 | 0.00 | 0.00 | 0.00 | 90 | 1016.8 | |
| 20260902054546 | 74 | 0.0 | 0.0 | 0.00 | 0.00 | 0.00 | 89 | 1017.3 | |
| 20260902054317 | 74 | 0.0 | 0.0 | 0.00 | 0.00 | 0.00 | 90 | 1016.9 | |
| 20260902054028 | 74 | 0.0 | 0.0 | 0.00 | 0.00 | 0.00 | 89 | 1017.3 | |
| 20260902053833 | 75 | 0.0 | 0.0 | 0.00 | 0.00 | 0.00 | 89 | 1016.8 | |
| 20260902053528 | 74 | 0.0 | 0.0 | 0.00 | 0.00 | 0.00 | 89 | 1017.4 | |
| 20260902053344 | 75 | 0.0 | 0.0 | 0.00 | 0.00 | 0.00 | 90 | 1016.7 | |
| 20260902053116 | 74 | 0.0 | 0.0 | 0.00 | 0.00 | 0.00 | 89 | 1017.2 | |
| 20260902052836 | 75 | 0.0 | 0.0 | 0.00 | 0.00 | 0.00 | 90 | 1016.8 | |
| 20260902052530 | 74 | 0.0 | 0.0 | 0.00 | 0.00 | 0.00 | 89 | 1017.2 | |
| 20260902052329 | 75 | 0.0 | 0.0 | 0.00 | 0.00 | 0.00 | 90 | 1016.8 | |
| 20260902052024 | 74 | 0.0 | 0.0 | 0.00 | 0.00 | 0.00 | 89 | 1017.3 | |
| 20260902051823 | 75 | 0.0 | 0.0 | 0.00 | 0.00 | 0.00 | 89 | 1016.7 | |
| 20260902051548 | 74 | 0.0 | 0.0 | 0.00 | 0.00 | 0.00 | 89 | 1017.2 | |
| 20260902051318 | 75 | 0.0 | 0.0 | 0.00 | 0.00 | 0.00 | 89 | 1016.8 | |
| 20260902051024 | 75 | 0.0 | 0.0 | 0.00 | 0.00 | 0.00 | 89 | 1017.3 | |
| 20260902050813 | 75 | 0.0 | 0.0 | 0.00 | 0.00 | 0.00 | 89 | 1016.7 | |
| 20260902050527 | 75 | 0.0 | 0.0 | 0.00 | 0.00 | 0.00 | 88 | 1017.1 | |
| 20260902050329 | 75 | 0.0 | 0.0 | 0.00 | 0.00 | 0.00 | 89 | 1016.8 | |
| 20260902050058 | 75 | 0.0 | 0.0 | 0.00 | 0.00 | 0.00 | 88 | 1017.3 | |
| 20260902045826 | 75 | 0.0 | 0.0 | 0.00 | 0.00 | 0.00 | 89 | 1016.8 | |
| 20260902045526 | 75 | 0.0 | 0.0 | 0.00 | 0.00 | 0.00 | 88 | 1017.4 | |
| 20260902045323 | 75 | 0.0 | 0.0 | 0.00 | 0.00 | 0.00 | 89 | 1016.9 | |
| 20260902045025 | 75 | 0.0 | 0.0 | 0.00 | 0.00 | 0.00 | 88 | 1017.4 | |
| 20260902044817 | 75 | 0.0 | 0.0 | 0.00 | 0.00 | 0.00 | 88 | 1016.9 | |
| 20260902044545 | 75 | 0.0 | 0.0 | 0.00 | 0.00 | 0.00 | 87 | 1017.3 | |
| 20260902044350 | 76 | 0.0 | 0.0 | 0.00 | 0.00 | 0.00 | 88 | 1016.7 | |
| 20260902044029 | 75 | 0.0 | 0.0 | 0.00 | 0.00 | 0.00 | 87 | 1017.1 | |
| 20260902043823 | 76 | 0.0 | 0.0 | 0.00 | 0.00 | 0.00 | 87 | 1016.5 | |
| 20260902043524 | 75 | 0.0 | 0.0 | 0.00 | 0.00 | 0.00 | 86 | 1016.9 | |
| 20260902043320 | 76 | 0.0 | 0.0 | 0.00 | 0.00 | 0.00 | 87 | 1016.4 | |
| 20260902043052 | 75 | 0.0 | 0.0 | 0.00 | 0.00 | 0.00 | 86 | 1016.8 | |
| 20260902042815 | 76 | 0.0 | 0.0 | 0.00 | 0.00 | 0.00 | 86 | 1016.3 | |
| 20260902042528 | 76 | 0.0 | 0.0 | 0.00 | 0.00 | 0.00 | 86 | 1016.7 | |
| 20260902042330 | 76 | 0.0 | 0.0 | 0.00 | 0.00 | 0.00 | 86 | 1016.2 | |
| 20260902042023 | 76 | 0.0 | 0.0 | 0.00 | 0.00 | 0.00 | 85 | 1016.7 | |
| 20260902041827 | 76 | 0.0 | 0.0 | 0.00 | 0.00 | 0.00 | 86 | 1016.2 | |
| 20260902041547 | 76 | 0.0 | 0.0 | 0.00 | 0.00 | 0.00 | 85 | 1016.5 | |
| 20260902041322 | 77 | 0.0 | 0.0 | 0.00 | 0.00 | 0.00 | 85 | 1016.1 | |
| 20260902041029 | 76 | 0.0 | 0.0 | 0.00 | 0.00 | 0.00 | 85 | 1016.4 | |
| 20260902040835 | 77 | 0.0 | 0.0 | 0.00 | 0.00 | 0.00 | 85 | 1016.0 | |
| 20260902040524 | 76 | 0.0 | 0.0 | 0.00 | 0.00 | 0.00 | 84 | 1016.3 | |
| 20260902040329 | 77 | 0.0 | 0.0 | 0.00 | 0.00 | 0.00 | 85 | 1016.0 | |
| 20260902040045 | 77 | 0.0 | 0.0 | 0.00 | 0.00 | 0.00 | 84 | 1016.3 | |
| 20260902035820 | 77 | 0.0 | 0.0 | 0.00 | 0.00 | 0.00 | 85 | 1015.8 | |
| 20260902035523 | 77 | 0.0 | 0.0 | 0.00 | 0.00 | 0.00 | 84 | 1016.3 | |
| 20260902035315 | 77 | 0.0 | 0.0 | 0.00 | 0.00 | 0.00 | 84 | 1015.8 | |
| 20260902035024 | 77 | 0.0 | 0.0 | 0.00 | 0.00 | 0.00 | 84 | 1016.2 | |
| 20260902034828 | 77 | 0.0 | 0.0 | 0.00 | 0.00 | 0.00 | 84 | 1015.8 | |
| 20260902034544 | 77 | 0.0 | 0.0 | 0.00 | 0.00 | 0.00 | 84 | 1016.1 | |
| 20260902034324 | 78 | 0.0 | 0.0 | 0.00 | 0.00 | 0.00 | 84 | 1015.7 | |
| 20260902034024 | 77 | 0.0 | 0.0 | 0.00 | 0.00 | 0.00 | 84 | 1016.1 | |
| 20260902033830 | 78 | 0.0 | 0.0 | 0.00 | 0.00 | 0.00 | 84 | 1015.6 | |
| 20260902033525 | 77 | 0.0 | 0.0 | 0.00 | 0.00 | 0.00 | 84 | 1015.9 | |
| 20260902033325 | 78 | 0.0 | 0.0 | 0.00 | 0.00 | 0.00 | 84 | 1015.5 | |
| 20260902033053 | 78 | 0.0 | 0.0 | 0.00 | 0.00 | 0.00 | 83 | 1016.0 | |
| 20260902032821 | 78 | 0.0 | 0.0 | 0.00 | 0.00 | 0.00 | 84 | 1015.5 | |
| 20260902032525 | 78 | 0.0 | 0.0 | 0.00 | 0.00 | 0.00 | 83 | 1016.0 | |
| 20260902032351 | 78 | 0.0 | 0.0 | 0.00 | 0.00 | 0.00 | 83 | 1015.5 | |
| 20260902032028 | 78 | 0.0 | 0.0 | 0.00 | 0.00 | 0.00 | 82 | 1016.0 | |
| 20260902031821 | 78 | 0.0 | 0.0 | 0.00 | 0.00 | 0.00 | 83 | 1015.5 | |
| 20260902031550 | 78 | 0.0 | 0.0 | 0.00 | 0.00 | 0.00 | 82 | 1015.9 | |
| 20260902031334 | 79 | 0.0 | 0.0 | 0.00 | 0.00 | 0.00 | 82 | 1015.4 | |
| 20260902031029 | 78 | 0.0 | 0.0 | 0.00 | 0.00 | 0.00 | 81 | 1015.9 | |
| 20260902030825 | 79 | 0.0 | 0.0 | 0.00 | 0.00 | 0.00 | 81 | 1015.4 | |
| 20260902030528 | 78 | 0.0 | 0.0 | 0.00 | 0.00 | 0.00 | 81 | 1015.7 | |
| 20260902030316 | 79 | 0.0 | 0.0 | 0.00 | 0.00 | 0.00 | 81 | 1015.3 | |
| 20260902030043 | 78 | 0.0 | 0.0 | 0.00 | 0.00 | 0.00 | 81 | 1015.6 | |
| 20260902025828 | 79 | 0.0 | 0.0 | 0.00 | 0.00 | 0.00 | 81 | 1015.2 | |
| 20260902025526 | 79 | 0.0 | 0.0 | 0.00 | 0.00 | 0.00 | 81 | 1015.6 | |
| 20260902025322 | 79 | 0.0 | 0.0 | 0.00 | 0.00 | 0.00 | 81 | 1015.0 | |
| 20260902025028 | 79 | 0.0 | 0.0 | 0.00 | 0.00 | 0.00 | 80 | 1015.5 | |
| 20260902024834 | 79 | 0.0 | 0.0 | 0.00 | 0.00 | 0.00 | 81 | 1014.9 | |
| 20260902024553 | 79 | 0.0 | 0.0 | 0.00 | 0.00 | 0.00 | 80 | 1015.4 | |
| 20260902024347 | 79 | 0.0 | 0.0 | 0.00 | 0.00 | 0.00 | 81 | 1015.0 | |
| 20260902024023 | 79 | 0.0 | 0.0 | 0.00 | 0.00 | 0.00 | 80 | 1015.5 | |
| 20260902023817 | 79 | 0.0 | 0.0 | 0.00 | 0.00 | 0.00 | 81 | 1015.0 | |
| 20260902023524 | 79 | 0.0 | 0.0 | 0.00 | 0.00 | 0.00 | 80 | 1015.5 | |
| 20260902023314 | 79 | 0.0 | 0.0 | 0.00 | 0.00 | 0.00 | 80 | 1015.1 | |
| 20260902023053 | 79 | 0.0 | 0.0 | 0.00 | 0.00 | 0.00 | 80 | 1015.6 | |
| 20260902022829 | 79 | 0.0 | 0.0 | 0.00 | 0.00 | 0.00 | 81 | 1015.2 | |
| 20260902022527 | 79 | 0.0 | 0.0 | 0.00 | 0.00 | 0.00 | 81 | 1015.8 | |
| 20260902022324 | 80 | 0.0 | 0.0 | 0.00 | 0.00 | 0.00 | 81 | 1015.3 | |
| 20260902022024 | 79 | 0.0 | 0.0 | 0.00 | 0.00 | 0.00 | 80 | 1015.8 | |
| 20260902021819 | 80 | 0.0 | 0.0 | 0.00 | 0.00 | 0.00 | 81 | 1015.5 | |
| 20260902021558 | 79 | 0.0 | 0.0 | 0.00 | 0.00 | 0.00 | 80 | 1016.0 | |
| 20260902021312 | 80 | 0.0 | 0.0 | 0.00 | 0.00 | 0.00 | 81 | 1015.5 | |
| 20260902021027 | 79 | 0.0 | 0.0 | 0.00 | 0.00 | 0.00 | 80 | 1016.0 | |
| 20260902020846 | 80 | 0.0 | 0.0 | 0.00 | 0.00 | 0.00 | 81 | 1015.5 | |
| 20260902020523 | 79 | 0.0 | 0.0 | 0.00 | 0.00 | 0.00 | 81 | 1015.9 | |
| 20260902020320 | 80 | 0.0 | 0.0 | 0.00 | 0.00 | 0.00 | 81 | 1015.4 | |
| 20260902020043 | 80 | 0.0 | 0.0 | 0.00 | 0.00 | 0.00 | 81 | 1015.8 | |
| 20260902015814 | 80 | 0.0 | 0.0 | 0.00 | 0.00 | 0.00 | 81 | 1015.3 | |
| 20260902015526 | 80 | 0.0 | 0.0 | 0.00 | 0.00 | 0.00 | 80 | 1015.8 | |
| 20260902015330 | 80 | 0.0 | 0.0 | 0.00 | 0.00 | 0.00 | 80 | 1015.2 | |
| 20260902015026 | 80 | 0.0 | 0.0 | 0.00 | 0.00 | 0.00 | 80 | 1015.6 | |
| 20260902014846 | 80 | 0.0 | 0.0 | 0.00 | 0.00 | 0.00 | 81 | 1015.1 | |
| 20260902014543 | 80 | 0.0 | 0.0 | 0.00 | 0.00 | 0.00 | 80 | 1015.6 | |
| 20260902014319 | 80 | 0.0 | 0.0 | 0.00 | 0.00 | 0.00 | 81 | 1015.1 | |
| 20260902014025 | 80 | 0.0 | 0.0 | 0.00 | 0.00 | 0.00 | 80 | 1015.6 | |
| 20260902013818 | 80 | 0.0 | 0.0 | 0.00 | 0.00 | 0.00 | 81 | 1015.1 | |
| 20260902013524 | 80 | 0.0 | 0.0 | 0.00 | 0.00 | 0.00 | 80 | 1015.6 | |
| 20260902013312 | 80 | 0.0 | 0.0 | 0.00 | 0.00 | 0.00 | 80 | 1015.0 | |
| 20260902013051 | 80 | 0.0 | 0.0 | 0.00 | 0.00 | 0.00 | 79 | 1015.5 | |
| 20260902012828 | 81 | 0.0 | 0.0 | 0.00 | 0.00 | 0.00 | 80 | 1015.0 | |
| 20260902012522 | 80 | 0.0 | 0.0 | 0.00 | 0.00 | 0.00 | 80 | 1015.4 | |
| 20260902012319 | 81 | 0.0 | 0.0 | 0.00 | 0.00 | 0.00 | 81 | 1015.0 | |
| 20260902012024 | 80 | 0.0 | 0.0 | 0.00 | 0.00 | 0.00 | 80 | 1015.5 | |
| 20260902011812 | 81 | 0.0 | 0.0 | 0.00 | 0.00 | 0.00 | 81 | 1015.0 | |
| 20260902011545 | 80 | 0.0 | 0.0 | 0.00 | 0.00 | 0.00 | 80 | 1015.4 | |
| 20260902011327 | 81 | 0.0 | 0.0 | 0.00 | 0.00 | 0.00 | 80 | 1014.9 | |
| 20260902011027 | 80 | 0.0 | 0.0 | 0.00 | 0.00 | 0.00 | 80 | 1015.4 | |
| 20260902010821 | 81 | 0.0 | 0.0 | 0.00 | 0.00 | 0.00 | 80 | 1014.9 | |
| 20260902010525 | 80 | 0.0 | 0.0 | 0.00 | 0.00 | 0.00 | 80 | 1015.3 | |
| 20260902010334 | 81 | 0.0 | 0.0 | 0.00 | 0.00 | 0.00 | 80 | 1014.8 | |
| 20260902010044 | 81 | 0.0 | 0.0 | 0.00 | 0.00 | 0.00 | 80 | 1015.3 | |
| 20260902005826 | 81 | 0.0 | 0.0 | 0.00 | 0.00 | 0.00 | 80 | 1014.7 | |
| 20260902005524 | 81 | 0.0 | 0.0 | 0.00 | 0.00 | 0.00 | 79 | 1015.1 | |
| 20260902005322 | 81 | 0.0 | 0.0 | 0.00 | 0.00 | 0.00 | 80 | 1014.6 | |
| 20260902005026 | 81 | 0.0 | 0.0 | 0.00 | 0.00 | 0.00 | 79 | 1015.1 | |
| 20260902004816 | 81 | 0.0 | 0.0 | 0.00 | 0.00 | 0.00 | 80 | 1014.6 | |
| 20260902004545 | 81 | 0.0 | 0.0 | 0.00 | 0.00 | 0.00 | 80 | 1015.1 | |
| 20260902004351 | 82 | 0.0 | 0.0 | 0.00 | 0.00 | 0.00 | 81 | 1014.5 | |
| 20260902004024 | 81 | 0.0 | 0.0 | 0.00 | 0.00 | 0.00 | 81 | 1015.0 | |
| 20260902003824 | 82 | 0.0 | 0.0 | 0.00 | 0.00 | 0.00 | 81 | 1014.4 | |
| 20260902003523 | 81 | 0.0 | 0.0 | 0.00 | 0.00 | 0.00 | 80 | 1014.7 | |
| 20260902003320 | 82 | 0.0 | 0.0 | 0.00 | 0.00 | 0.00 | 80 | 1014.2 | |
| 20260902003051 | 82 | 0.0 | 0.0 | 0.00 | 0.00 | 0.00 | 80 | 1014.7 | |
| 20260902002814 | 82 | 0.0 | 0.0 | 0.00 | 0.00 | 0.00 | 80 | 1014.1 | |
| 20260902002525 | 82 | 0.0 | 0.0 | 0.00 | 0.00 | 0.00 | 80 | 1014.6 | |
| 20260902002330 | 82 | 0.0 | 0.0 | 0.00 | 0.00 | 0.00 | 80 | 1014.1 | |
| 20260902002029 | 82 | 0.0 | 0.0 | 0.00 | 0.00 | 0.00 | 80 | 1014.6 | |
| 20260902001823 | 83 | 0.0 | 0.0 | 0.00 | 0.00 | 0.00 | 80 | 1013.9 | |
| 20260902001545 | 82 | 0.0 | 0.0 | 0.00 | 0.00 | 0.00 | 80 | 1014.4 | |
| 20260902001314 | 83 | 0.0 | 0.0 | 0.00 | 0.00 | 0.00 | 81 | 1013.8 | |
| 20260902001026 | 83 | 0.0 | 0.0 | 0.00 | 0.00 | 0.00 | 80 | 1014.3 | |
| 20260902000829 | 83 | 0.0 | 0.0 | 0.00 | 0.00 | 0.00 | 81 | 1013.7 | |
| 20260902000527 | 83 | 0.0 | 0.0 | 0.00 | 0.00 | 0.00 | 80 | 1014.3 | |
| 20260902000323 | 84 | 0.0 | 0.0 | 0.00 | 0.00 | 0.00 | 80 | 1013.6 | |
| 20260902000051 | 83 | 0.0 | 0.0 | 0.00 | 0.00 | 0.00 | 79 | 1014.3 | |
| 20260901235820 | 84 | 0.0 | 0.0 | 0.00 | 0.00 | 0.00 | 79 | 1013.7 | |
| 20260901235527 | 84 | 0.0 | 0.0 | 0.00 | 0.00 | 0.00 | 79 | 1014.2 | |
| 20260901235348 | 84 | 0.0 | 0.0 | 0.00 | 0.00 | 0.00 | 79 | 1013.6 | |
| 20260901235023 | 84 | 0.0 | 0.0 | 0.00 | 0.00 | 0.00 | 78 | 1014.2 | |
| 20260901234824 | 85 | 0.0 | 0.0 | 0.00 | 0.00 | 0.00 | 79 | 1013.5 | |
| 20260901234544 | 84 | 0.0 | 0.0 | 0.00 | 0.00 | 0.00 | 78 | 1014.2 | |
| 20260901234334 | 85 | 0.0 | 0.0 | 0.00 | 0.00 | 0.00 | 78 | 1013.6 | |
| 20260901234028 | 85 | 0.0 | 0.0 | 0.00 | 0.00 | 0.00 | 77 | 1014.2 | |
| 20260901233829 | 85 | 0.0 | 0.0 | 0.00 | 0.00 | 0.00 | 78 | 1013.5 | |
| 20260901233525 | 85 | 0.0 | 0.0 | 0.00 | 0.00 | 0.00 | 77 | 1014.3 | |
| 20260901233340 | 86 | 181 | 0.0 | 0.0 | 0.00 | 0.00 | 0.00 | 77 | 1013.7 |
| 20260901233051 | 85 | 0.0 | 0.0 | 0.00 | 0.00 | 0.00 | 76 | 1014.3 | |
| 20260901232813 | 86 | 181 | 0.0 | 0.0 | 0.00 | 0.00 | 0.00 | 77 | 1013.6 |
| 20260901232527 | 86 | 0 | 0.0 | 0.0 | 0.00 | 0.00 | 0.00 | 77 | 1014.3 |
| 20260901232330 | 86 | 181 | 0.0 | 0.0 | 0.00 | 0.00 | 0.00 | 77 | 1013.7 |
| 20260901232027 | 86 | 0 | 0.0 | 0.0 | 0.00 | 0.00 | 0.00 | 76 | 1014.4 |
| 20260901231824 | 86 | 181 | 0.0 | 0.0 | 0.00 | 0.00 | 0.00 | 77 | 1013.8 |
| 20260901231544 | 86 | 0 | 0.0 | 0.0 | 0.00 | 0.00 | 0.00 | 77 | 1014.4 |
| 20260901231315 | 86 | 181 | 0.0 | 0.0 | 0.00 | 0.00 | 0.00 | 77 | 1013.8 |
| 20260901231024 | 86 | 0 | 0.0 | 0.0 | 0.00 | 0.00 | 0.00 | 76 | 1014.4 |
| 20260901230829 | 87 | 181 | 0.0 | 0.0 | 0.00 | 0.00 | 0.00 | 77 | 1013.8 |
| 20260901230525 | 86 | 0 | 0.0 | 0.0 | 0.00 | 0.00 | 0.00 | 76 | 1014.4 |
| 20260901230321 | 87 | 181 | 0.0 | 0.0 | 0.00 | 0.00 | 0.00 | 75 | 1013.9 |
| 20260901230100 | 86 | 0 | 0.0 | 0.0 | 0.00 | 0.00 | 0.00 | 76 | 1014.5 |
| 20260901225832 | 87 | 181 | 0.0 | 0.0 | 0.00 | 0.00 | 0.00 | 77 | 1013.9 |
| 20260901225524 | 86 | 0 | 0.0 | 0.0 | 0.00 | 0.00 | 0.00 | 76 | 1014.6 |
| 20260901225344 | 87 | 181 | 0.0 | 0.0 | 0.00 | 0.00 | 0.00 | 77 | 1013.9 |
| 20260901225028 | 86 | 0 | 0.0 | 0.0 | 0.00 | 0.00 | 0.00 | 76 | 1014.5 |
| 20260901224815 | 87 | 181 | 0.0 | 0.0 | 0.00 | 0.00 | 0.00 | 76 | 1013.8 |
| 20260901224549 | 87 | 0 | 0.0 | 0.0 | 0.00 | 0.00 | 0.00 | 75 | 1014.4 |
| 20260901224328 | 87 | 181 | 0.0 | 0.0 | 0.00 | 0.00 | 0.00 | 75 | 1013.9 |
| 20260901224028 | 87 | 0 | 0.0 | 0.0 | 0.00 | 0.00 | 0.00 | 74 | 1014.4 |
| 20260901223822 | 88 | 181 | 0.0 | 0.0 | 0.00 | 0.00 | 0.00 | 74 | 1013.8 |
| 20260901223527 | 87 | 0 | 0.0 | 0.0 | 0.00 | 0.00 | 0.00 | 74 | 1014.4 |
| 20260901223334 | 88 | 181 | 0.0 | 0.0 | 0.00 | 0.00 | 0.00 | 74 | 1013.8 |
| 20260901223053 | 88 | 0 | 0.0 | 0.0 | 0.00 | 0.00 | 0.00 | 73 | 1014.4 |
| 20260901222826 | 88 | 181 | 0.0 | 0.0 | 0.00 | 0.00 | 0.00 | 73 | 1013.8 |
| 20260901222525 | 88 | 0 | 0.0 | 0.0 | 0.00 | 0.00 | 0.00 | 72 | 1014.3 |
| 20260901222318 | 89 | 181 | 0.0 | 0.0 | 0.00 | 0.00 | 0.00 | 73 | 1013.8 |
| 20260901222028 | 88 | 0 | 0.0 | 0.0 | 0.00 | 0.00 | 0.00 | 72 | 1014.4 |
| 20260901221852 | 89 | 181 | 0.0 | 0.0 | 0.00 | 0.00 | 0.00 | 72 | 1013.9 |
| 20260901221546 | 89 | 0 | 0.0 | 0.0 | 0.00 | 0.00 | 0.00 | 71 | 1014.4 |
| 20260901221321 | 89 | 181 | 0.0 | 0.0 | 0.00 | 0.00 | 0.00 | 71 | 1013.9 |
| 20260901221028 | 89 | 0 | 0.0 | 0.0 | 0.00 | 0.00 | 0.00 | 70 | 1014.4 |
| 20260901220832 | 90 | 181 | 0.0 | 0.0 | 0.00 | 0.00 | 0.00 | 72 | 1013.8 |
| 20260901220526 | 89 | 0 | 0.0 | 0.0 | 0.00 | 0.00 | 0.00 | 71 | 1014.5 |
| 20260901220324 | 90 | 181 | 0.0 | 0.0 | 0.00 | 0.00 | 0.00 | 70 | 1013.9 |
| 20260901220104 | 90 | 0 | 0.0 | 0.0 | 0.00 | 0.00 | 0.00 | 67 | 1014.4 |
| 20260901215855 | 90 | 181 | 0.0 | 0.0 | 0.00 | 0.00 | 0.00 | 69 | 1013.9 |
| 20260901215527 | 89 | 0 | 0.0 | 0.0 | 0.00 | 0.00 | 0.00 | 66 | 1014.5 |
| 20260901215346 | 90 | 181 | 0.0 | 0.0 | 0.00 | 0.00 | 0.00 | 66 | 1013.9 |
| 20260901215026 | 89 | 0 | 0.0 | 0.0 | 0.00 | 0.00 | 0.00 | 66 | 1014.5 |
| 20260901214820 | 90 | 181 | 0.0 | 0.0 | 0.00 | 0.00 | 0.00 | 67 | 1013.9 |
| 20260901214545 | 89 | 0 | 0.0 | 0.0 | 0.00 | 0.00 | 0.00 | 66 | 1014.5 |
| 20260901214314 | 90 | 181 | 0.0 | 0.0 | 0.00 | 0.00 | 0.00 | 67 | 1014.0 |
| 20260901214028 | 89 | 0 | 0.0 | 2.0 | 0.00 | 0.00 | 0.00 | 69 | 1014.5 |
| 20260901213826 | 90 | 181 | 0.0 | 2.0 | 0.00 | 0.00 | 0.00 | 69 | 1014.0 |
| 20260901213525 | 89 | 0 | 0.0 | 2.0 | 0.00 | 0.00 | 0.00 | 67 | 1014.5 |
| 20260901213318 | 90 | 181 | 0.0 | 2.0 | 0.00 | 0.00 | 0.00 | 69 | 1014.0 |
| 20260901213047 | 89 | 0 | 0.0 | 1.0 | 0.00 | 0.00 | 0.00 | 68 | 1014.6 |
| 20260901212849 | 90 | 181 | 0.0 | 1.0 | 0.00 | 0.00 | 0.00 | 69 | 1013.9 |
| 20260901212525 | 90 | 0 | 0.0 | 1.0 | 0.00 | 0.00 | 0.00 | 67 | 1014.5 |
| 20260901212319 | 90 | 181 | 0.0 | 1.0 | 0.00 | 0.00 | 0.00 | 67 | 1013.9 |
| 20260901212025 | 90 | 0 | 0.0 | 1.0 | 0.00 | 0.00 | 0.00 | 66 | 1014.5 |
| 20260901211833 | 90 | 181 | 0.0 | 1.0 | 0.00 | 0.00 | 0.00 | 68 | 1014.0 |
| 20260901211544 | 90 | 0 | 0.0 | 1.0 | 0.00 | 0.00 | 0.00 | 67 | 1014.6 |
| 20260901211327 | 91 | 181 | 0.0 | 0.0 | 0.00 | 0.00 | 0.00 | 67 | 1014.0 |
| 20260901211025 | 90 | 0 | 0.0 | 3.0 | 0.00 | 0.00 | 0.00 | 64 | 1014.6 |
| 20260901210839 | 91 | 181 | 0.0 | 3.0 | 0.00 | 0.00 | 0.00 | 66 | 1014.1 |
| 20260901210526 | 90 | 0 | 0.0 | 3.0 | 0.00 | 0.00 | 0.00 | 64 | 1014.6 |
| 20260901210330 | 91 | 181 | 0.0 | 3.0 | 0.00 | 0.00 | 0.00 | 64 | 1014.0 |
| 20260901210043 | 90 | 0 | 0.0 | 3.0 | 0.00 | 0.00 | 0.00 | 65 | 1014.6 |
| 20260901205843 | 91 | 181 | 0.0 | 3.0 | 0.00 | 0.00 | 0.00 | 64 | 1014.1 |
| 20260901205524 | 90 | 0 | 0.0 | 3.0 | 0.00 | 0.00 | 0.00 | 65 | 1014.7 |
| 20260901205322 | 91 | 181 | 0.0 | 3.0 | 0.00 | 0.00 | 0.00 | 65 | 1014.1 |
| 20260901205025 | 90 | 0 | 0.0 | 3.0 | 0.00 | 0.00 | 0.00 | 63 | 1014.7 |
| 20260901204814 | 91 | 181 | 0.0 | 3.0 | 0.00 | 0.00 | 0.00 | 66 | 1014.2 |
| 20260901204544 | 90 | 205 | 0.0 | 3.0 | 0.00 | 0.00 | 0.00 | 65 | 1014.7 |
| 20260901204328 | 91 | 180 | 0.0 | 3.0 | 0.00 | 0.00 | 0.00 | 66 | 1014.2 |
| 20260901204024 | 90 | 0 | 0.0 | 3.0 | 0.00 | 0.00 | 0.00 | 66 | 1014.7 |
| 20260901203819 | 91 | 188 | 0.0 | 3.0 | 0.00 | 0.00 | 0.00 | 66 | 1014.2 |
| 20260901203526 | 90 | 209 | 0.0 | 2.0 | 0.00 | 0.00 | 0.00 | 65 | 1014.7 |
| 20260901203313 | 90 | 190 | 0.0 | 2.0 | 0.00 | 0.00 | 0.00 | 66 | 1014.2 |
| 20260901203053 | 90 | 214 | 0.0 | 2.0 | 0.00 | 0.00 | 0.00 | 66 | 1014.8 |
| 20260901202829 | 91 | 190 | 0.0 | 2.0 | 0.00 | 0.00 | 0.00 | 67 | 1014.3 |
| 20260901202525 | 90 | 0 | 0.0 | 5.0 | 0.00 | 0.00 | 0.00 | 65 | 1014.9 |
| 20260901202325 | 91 | 188 | 0.0 | 5.0 | 0.00 | 0.00 | 0.00 | 64 | 1014.3 |
| 20260901202026 | 90 | 0 | 0.0 | 8.0 | 0.00 | 0.00 | 0.00 | 64 | 1014.9 |
| 20260901201821 | 91 | 186 | 2.0 | 7.0 | 0.00 | 0.00 | 0.00 | 66 | 1014.4 |
| 20260901201551 | 90 | 0 | 0.0 | 8.0 | 0.00 | 0.00 | 0.00 | 64 | 1015.0 |
| 20260901201318 | 91 | 169 | 0.0 | 7.0 | 0.00 | 0.00 | 0.00 | 64 | 1014.5 |
| 20260901201026 | 90 | 0 | 0.0 | 4.0 | 0.00 | 0.00 | 0.00 | 66 | 1015.0 |
| 20260901200825 | 91 | 7 | 0.0 | 3.0 | 0.00 | 0.00 | 0.00 | 67 | 1014.5 |
| 20260901200525 | 90 | 0 | 0.0 | 3.0 | 0.00 | 0.00 | 0.00 | 66 | 1015.0 |
| 20260901200311 | 91 | 7 | 1.0 | 3.0 | 0.00 | 0.00 | 0.00 | 64 | 1014.6 |
| 20260901200045 | 90 | 0 | 0.0 | 3.0 | 0.00 | 0.00 | 0.00 | 63 | 1015.1 |
| 20260901195820 | 91 | 315 | 0.0 | 2.0 | 0.00 | 0.00 | 0.00 | 67 | 1014.6 |
| 20260901195527 | 90 | 0 | 0.0 | 2.0 | 0.00 | 0.00 | 0.00 | 65 | 1015.1 |
| 20260901195329 | 91 | 325 | 0.0 | 2.0 | 0.00 | 0.00 | 0.00 | 65 | 1014.7 |
| 20260901195030 | 90 | 0 | 0.0 | 3.0 | 0.00 | 0.00 | 0.00 | 66 | 1015.2 |
| 20260901194838 | 91 | 185 | 0.0 | 3.0 | 0.00 | 0.00 | 0.00 | 64 | 1014.8 |
| 20260901194555 | 90 | 0 | 0.0 | 3.0 | 0.00 | 0.00 | 0.00 | 63 | 1015.3 |
| 20260901194333 | 91 | 153 | 0.0 | 3.0 | 0.00 | 0.00 | 0.00 | 64 | 1014.8 |
| 20260901194029 | 90 | 0 | 0.0 | 4.0 | 0.00 | 0.00 | 0.00 | 63 | 1015.3 |
| 20260901193822 | 91 | 317 | 0.0 | 4.0 | 0.00 | 0.00 | 0.00 | 65 | 1014.8 |
| 20260901193525 | 90 | 0 | 0.0 | 4.0 | 0.00 | 0.00 | 0.00 | 65 | 1015.3 |
| 20260901193314 | 91 | 174 | 1.0 | 4.0 | 0.00 | 0.00 | 0.00 | 65 | 1014.9 |
| 20260901193049 | 90 | 0 | 0.0 | 2.0 | 0.00 | 0.00 | 0.00 | 64 | 1015.4 |
| 20260901192829 | 91 | 219 | 0.0 | 2.0 | 0.00 | 0.00 | 0.00 | 66 | 1014.9 |
| 20260901192527 | 90 | 0 | 0.0 | 2.0 | 0.00 | 0.00 | 0.00 | 66 | 1015.4 |
| 20260901192321 | 90 | 215 | 0.0 | 2.0 | 0.00 | 0.00 | 0.00 | 65 | 1014.9 |
| 20260901192026 | 90 | 0 | 0.0 | 2.0 | 0.00 | 0.00 | 0.00 | 65 | 1015.4 |
| 20260901191816 | 90 | 233 | 0.0 | 0.0 | 0.00 | 0.00 | 0.00 | 65 | 1015.0 |
| 20260901191603 | 90 | 0 | 0.0 | 4.0 | 0.00 | 0.00 | 0.00 | 65 | 1015.5 |
| 20260901191327 | 90 | 229 | 0.0 | 4.0 | 0.00 | 0.00 | 0.00 | 67 | 1015.1 |
| 20260901191026 | 90 | 0 | 0.0 | 4.0 | 0.00 | 0.00 | 0.00 | 64 | 1015.7 |
| 20260901190820 | 91 | 229 | 0.0 | 4.0 | 0.00 | 0.00 | 0.00 | 63 | 1015.3 |
| 20260901190530 | 90 | 0 | 0.0 | 6.0 | 0.00 | 0.00 | 0.00 | 64 | 1015.9 |
| 20260901190317 | 91 | 286 | 0.0 | 5.0 | 0.00 | 0.00 | 0.00 | 63 | 1015.5 |
| 20260901190054 | 91 | 41 | 0.0 | 7.0 | 0.00 | 0.00 | 0.00 | 63 | 1016.0 |